Location: Altmatt
(47.1333°N, 8.7000°E)
Time: 17:08:58
(UTC+00:00)

X-37B - Visible Passes

Search period start: 23 June 2021 00:00
Search period end: 03 July 2021 00:00
Orbit: 386 x 389 km, 45.0° (Epoch: 10 June)

Date Brightness Start Highest point End Pass type
(mag) Time Alt. Az. Time Alt. Az. Time Alt. Az.
23 Jun 2.4 02:22:09 14° SSW 02:22:09 14° SSW 02:23:48 10° S visible
23 Jun 1.9 20:32:32 10° SSW 20:35:01 21° SSE 20:37:28 10° ESE visible
23 Jun 1.6 22:08:09 10° WSW 22:10:08 32° SW 22:10:08 32° SW visible
24 Jun 1.0 21:09:58 10° WSW 21:12:59 41° SSE 21:15:11 16° E visible
24 Jun 2.5 22:46:17 10° W 22:47:29 21° WSW 22:47:29 21° WSW visible
25 Jun 1.5 20:11:53 10° SW 20:14:44 30° SSE 20:17:34 10° E visible
25 Jun 0.5 21:47:59 10° WSW 21:51:06 58° S 21:51:53 42° ESE visible
26 Jun 0.7 20:49:41 10° WSW 20:52:48 52° S 20:55:54 10° E visible
26 Jun 1.5 22:26:10 10° W 22:28:17 35° WSW 22:28:17 35° WSW visible
27 Jun 0.6 21:27:49 10° W 21:30:57 58° S 21:32:17 30° ESE visible
27 Jun 3.4 23:04:30 10° W 23:04:33 10° W 23:04:33 10° W visible
28 Jun 0.6 20:29:30 10° WSW 20:32:38 58° S 20:35:47 10° E visible
28 Jun 1.4 22:06:04 10° W 22:08:29 36° SW 22:08:29 36° SW visible
29 Jun 0.8 21:07:41 10° W 21:10:48 51° S 21:12:24 24° ESE visible
29 Jun 3.4 22:44:36 10° WSW 22:44:39 10° WSW 22:44:39 10° WSW visible
30 Jun 0.7 20:09:21 10° W 20:12:29 58° S 20:15:38 10° ESE visible
30 Jun 1.7 21:46:02 10° W 21:48:33 29° SSW 21:48:33 29° SSW visible
01 Jul 1.2 20:47:36 10° W 20:50:37 40° SSW 20:52:27 19° SE visible
02 Jul 2.2 21:26:08 10° WSW 21:28:35 20° SSW 21:28:38 20° SSW visible
